EW1600 Weather Reports


Display with metric or nautical units.
time (UTC)temp
F
wind
direction
speed
MPH
gust
MPH
rain 1hr
in
rain 24hr
in
rain mn
in
humidity
%
barometer
mb
20260506191504 39 277 2.0 7.0 0.00 0.17 0.17 76 1014.0
20260506191004 39 310 2.0 7.0 0.00 0.17 0.17 76 1014.0
20260506190504 40 274 6.0 12.0 0.00 0.17 0.17 76 1013.9
20260506185503 40 264 3.0 6.0 0.00 0.17 0.17 76 1013.9
20260506185004 40 265 2.0 6.0 0.00 0.17 0.17 76 1013.7
20260506184504 41 257 3.0 8.0 0.00 0.17 0.17 75 1013.7
20260506184004 41 248 3.0 6.0 0.00 0.17 0.17 75 1013.8
20260506183003 41 278 4.0 9.0 0.00 0.17 0.17 73 1013.7
20260506182503 41 214 7.0 13.0 0.00 0.17 0.17 71 1013.9
20260506182004 41 257 3.0 8.0 0.00 0.17 0.17 71 1013.8
20260506181504 41 154 3.0 9.0 0.00 0.17 0.17 70 1013.8
20260506181003 41 286 2.0 8.0 0.00 0.17 0.17 70 1013.8
20260506180004 41 262 3.0 10.0 0.00 0.17 0.17 68 1013.7
20260506175503 42 208 3.0 10.0 0.00 0.17 0.17 66 1013.7
20260506175003 42 169 3.0 9.0 0.00 0.17 0.17 64 1013.7
20260506174504 42 242 3.0 12.0 0.00 0.17 0.17 63 1013.7
20260506174004 43 153 3.0 7.0 0.00 0.17 0.17 64 1013.5
20260506173003 43 254 1.0 9.0 0.00 0.17 0.17 63 1013.4
20260506172504 43 201 4.0 10.0 0.00 0.17 0.17 62 1013.5
20260506172003 43 262 5.0 12.0 0.00 0.17 0.17 63 1013.5
20260506171504 43 268 6.0 12.0 0.00 0.17 0.17 64 1013.5
20260506171004 43 223 5.0 13.0 0.00 0.17 0.17 63 1013.5
20260506170503 43 271 5.0 10.0 0.00 0.17 0.17 63 1013.5
20260506170004 43 289 5.0 12.0 0.00 0.17 0.17 64 1013.4
20260506165504 43 269 6.0 13.0 0.00 0.17 0.17 63 1013.6
20260506165004 43 268 3.0 12.0 0.00 0.17 0.17 64 1013.6
20260506164504 43 166 2.0 7.0 0.00 0.17 0.17 64 1013.5
20260506164004 43 223 2.0 9.0 0.00 0.17 0.17 63 1013.5
20260506163503 43 222 2.0 9.0 0.00 0.17 0.17 63 1013.5
20260506162504 44 217 4.0 9.0 0.00 0.17 0.17 61 1013.6
20260506162004 43 260 3.0 10.0 0.00 0.17 0.17 63 1013.6
20260506161504 43 150 4.0 12.0 0.00 0.17 0.17 62 1013.7
20260506160504 44 163 2.0 7.0 0.00 0.17 0.17 60 1013.6
20260506160004 46 236 3.0 10.0 0.00 0.17 0.17 59 1013.6
20260506155504 46 269 5.0 9.0 0.00 0.17 0.17 58 1013.7
20260506155003 45 170 5.0 12.0 0.00 0.17 0.17 57 1013.6
20260506154004 44 264 6.0 10.0 0.00 0.17 0.17 62 1013.8
20260506153504 44 176 2.0 7.0 0.00 0.17 0.17 64 1013.8
20260506153004 44 241 3.0 6.0 0.00 0.17 0.17 64 1013.6
20260506152504 44 217 4.0 9.0 0.00 0.17 0.17 62 1013.7
20260506151504 43 198 3.0 9.0 0.00 0.17 0.17 64 1013.7
20260506151004 43 210 3.0 8.0 0.00 0.17 0.17 64 1013.7
20260506150504 43 210 4.0 12.0 0.00 0.17 0.17 63 1013.8
20260506150004 43 268 4.0 13.0 0.00 0.17 0.17 65 1013.9
20260506145504 43 172 5.0 16.0 0.00 0.17 0.17 64 1013.9
20260506145003 44 265 4.0 12.0 0.00 0.17 0.17 62 1013.9
20260506144504 43 236 3.0 12.0 0.00 0.17 0.17 65 1013.8
20260506144003 45 257 3.0 13.0 0.00 0.17 0.17 65 1013.8
20260506143504 43 177 2.0 8.0 0.00 0.17 0.17 66 1013.6
20260506143004 43 223 3.0 10.0 0.00 0.17 0.17 68 1013.7
20260506142504 42 198 3.0 8.0 0.00 0.18 0.17 67 1013.7
20260506142004 41 193 4.0 10.0 0.00 0.18 0.17 68 1013.9
20260506141504 42 153 4.0 12.0 0.00 0.18 0.17 66 1013.7
20260506141004 43 250 3.0 8.0 0.00 0.18 0.17 66 1013.9
20260506140004 42 283 4.0 8.0 0.00 0.19 0.17 68 1013.9
20260506135504 43 210 5.0 12.0 0.00 0.20 0.17 67 1014.0
20260506135004 43 267 5.0 12.0 0.00 0.20 0.17 68 1013.8
20260506134504 43 263 4.0 9.0 0.00 0.20 0.17 66 1013.9
20260506134004 44 175 3.0 7.0 0.00 0.21 0.17 66 1013.7
20260506133003 44 194 2.0 8.0 0.00 0.24 0.17 64 1013.7
20260506132504 43 224 4.0 15.0 0.00 0.24 0.17 66 1013.9
20260506132004 43 208 3.0 7.0 0.00 0.25 0.17 65 1014.0
20260506131004 43 156 3.0 12.0 0.00 0.28 0.17 65 1014.0
20260506130503 43 146 3.0 9.0 0.00 0.29 0.17 64 1014.0
20260506130004 44 267 2.0 9.0 0.00 0.30 0.17 65 1014.0
20260506124504 42 203 3.0 9.0 0.00 0.33 0.17 67 1013.9
20260506124004 44 257 5.0 12.0 0.00 0.34 0.17 64 1014.0
20260506123503 44 211 3.0 8.0 0.00 0.35 0.17 67 1013.9
20260506122504 44 258 2.0 12.0 0.00 0.36 0.17 70 1013.9
20260506122003 44 272 3.0 9.0 0.00 0.38 0.17 68 1013.9
20260506121504 44 187 3.0 9.0 0.00 0.39 0.17 67 1013.8
20260506121003 45 152 4.0 9.0 0.00 0.40 0.17 66 1013.8
20260506120504 45 232 5.0 9.0 0.00 0.42 0.17 67 1013.8
20260506120004 44 235 5.0 9.0 0.00 0.43 0.17 70 1013.8
20260506115004 46 261 4.0 10.0 0.00 0.46 0.17 66 1013.9
20260506114504 45 287 4.0 9.0 0.00 0.47 0.17 67 1013.9
20260506114004 44 269 2.0 7.0 0.00 0.49 0.17 73 1013.8
20260506113503 43 174 3.0 8.0 0.00 0.50 0.17 72 1013.9
20260506113004 42 265 3.0 5.0 0.00 0.51 0.17 74 1014.0
20260506112504 41 214 2.0 6.0 0.00 0.53 0.17 76 1014.0
20260506111504 43 268 5.0 10.0 0.00 0.55 0.17 71 1013.9
20260506111004 44 240 4.0 10.0 0.00 0.57 0.17 72 1013.9
20260506110004 41 262 2.0 6.0 0.00 0.59 0.17 75 1013.7
20260506105503 40 184 5.0 8.0 0.00 0.61 0.17 74 1013.8
20260506105004 41 270 3.0 7.0 0.00 0.62 0.17 76 1013.7
20260506104504 41 192 3.0 8.0 0.00 0.63 0.17 74 1013.8
20260506104004 40 180 2.0 8.0 0.00 0.64 0.17 76 1013.7
20260506103004 41 164 3.0 9.0 0.00 0.64 0.17 73 1013.6
20260506102504 40 273 2.0 9.0 0.00 0.64 0.17 74 1013.6
20260506102004 41 192 2.0 6.0 0.01 0.64 0.17 73 1013.7
20260506101504 42 172 2.0 8.0 0.01 0.65 0.17 69 1013.6
20260506101004 44 156 2.0 7.0 0.01 0.65 0.17 73 1013.5
20260506100503 44 162 1.0 7.0 0.01 0.65 0.17 73 1013.6
20260506100004 43 272 3.0 9.0 0.02 0.65 0.17 76 1013.6
20260506095504 43 280 4.0 9.0 0.02 0.65 0.17 75 1013.7
20260506095003 42 281 5.0 12.0 0.02 0.65 0.17 76 1013.7
20260506094503 43 258 3.0 10.0 0.02 0.65 0.17 80 1013.7
20260506094004 41 293 3.0 7.0 0.03 0.65 0.17 82 1013.7
20260506093503 38 220 5.0 12.0 0.04 0.65 0.17 80 1013.7
20260506093004 39 200 2.0 8.0 0.05 0.65 0.17 81 1013.7
20260506092504 39 257 2.0 9.0 0.05 0.65 0.17 85 1013.6
20260506092004 37 170 2.0 9.0 0.04 0.64 0.16 86 1013.7
20260506091504 37 192 1.0 7.0 0.04 0.65 0.16 87 1013.8
20260506090503 37 181 3.0 8.0 0.04 0.65 0.16 87 1013.7
20260506090003 37 272 1.0 3.0 0.03 0.64 0.15 88 1013.7
20260506085504 36 243 2.0 12.0 0.03 0.64 0.15 87 1013.6
20260506085004 37 231 2.0 9.0 0.03 0.64 0.15 86 1013.8
20260506084004 40 163 2.0 8.0 0.02 0.62 0.13 88 1013.7
20260506083004 38 307 0.0 2.0 0.00 0.61 0.12 90 1013.7
20260506082004 36 292 1.0 5.0 0.01 0.61 0.12 90 1013.7
20260506081503 34 239 1.0 3.0 0.01 0.61 0.12 90 1013.8
20260506073503 37 283 3.0 8.0 0.02 0.61 0.12 84 1013.4
20260506073003 38 283 5.0 12.0 0.03 0.61 0.12 81 1013.4
20260506072503 39 276 6.0 12.0 0.03 0.61 0.12 78 1013.3
20260506072004 39 286 3.0 6.0 0.02 0.60 0.11 77 1013.1
20260506071503 39 286 2.0 7.0 0.03 0.60 0.11 80 1013.1
20260506071004 37 167 0.0 3.0 0.03 0.60 0.11 80 1013.0
20260506070504 37 138 2.0 8.0 0.03 0.59 0.10 82 1013.0
20260506062504 37 255 2.0 5.0 0.03 0.57 0.09 82 1013.0
20260506062003 37 262 3.0 8.0 0.04 0.57 0.09 82 1013.0
20260506061503 37 257 2.0 8.0 0.03 0.57 0.08 82 1012.9
20260506061003 37 259 3.0 7.0 0.03 0.57 0.08 82 1012.9
20260506060504 36 283 2.0 7.0 0.03 0.56 0.07 82 1012.9
20260506051004 35 184 2.0 7.0 0.03 0.54 0.05 89 1012.8
20260506050504 35 144 2.0 3.0 0.02 0.53 0.04 89 1012.8
20260506045003 34 197 2.0 5.0 0.02 0.52 0.03 90 1013.0
20260506044504 34 185 1.0 3.0 0.02 0.51 0.02 91 1012.9
20260506044004 34 184 1.0 2.0 0.02 0.51 0.02 91 1013.0
20260506043503 34 250 1.0 3.0 0.02 0.51 0.02 91 1012.9
20260506043003 34 264 3.0 7.0 0.02 0.51 0.02 91 1012.9
20260506042504 34 295 1.0 5.0 0.02 0.51 0.02 91 1013.0
20260506042004 34 254 1.0 6.0 0.02 0.50 0.02 91 1013.0
20260506041503 34 264 1.0 5.0 0.02 0.50 0.02 91 1013.0
20260506040503 34 288 1.0 3.0 0.02 0.50 0.02 91 1013.0
20260506040004 34 296 2.0 6.0 0.02 0.50 0.02 91 1013.0
20260506035503 34 275 1.0 2.0 0.01 0.50 0.01 91 1013.0
20260506035004 34 259 1.0 6.0 0.01 0.50 0.01 91 1013.0
20260506034504 34 186 2.0 7.0 0.01 0.50 0.01 91 1013.1
20260506034004 34 176 2.0 7.0 0.00 0.49 0.00 91 1013.0
20260506033503 33 255 1.0 3.0 0.00 0.49 0.00 91 1013.0
20260506033005 33 281 1.0 5.0 0.00 0.49 0.00 91 1012.9
20260506032503 33 104 0.0 1.0 0.00 0.49 0.00 91 1012.9
20260506032003 33 94 0.0 2.0 0.00 0.49 0.00 90 1012.9
20260506031503 33 320 1.0 2.0 0.00 0.49 0.00 90 1012.9
20260506031003 33 19 1.0 3.0 0.00 0.49 0.00 90 1012.9
20260506030504 33 327 1.0 3.0 0.00 0.49 0.00 89 1013.0
20260506030003 33 201 1.0 2.0 0.00 0.49 0.00 89 1013.0
20260506025503 33 327 1.0 3.0 0.00 0.49 0.00 89 1013.0
20260506024004 34 222 2.0 6.0 0.00 0.49 0.00 89 1013.1
20260506023504 34 280 1.0 5.0 0.00 0.49 0.00 89 1013.0
20260506023004 34 294 0.0 3.0 0.00 0.49 0.00 89 1013.0
20260506022504 34 297 2.0 3.0 0.00 0.49 0.00 89 1013.0
20260506022003 34 307 1.0 3.0 0.00 0.49 0.00 89 1012.9
20260506021503 34 291 1.0 3.0 0.00 0.49 0.00 89 1012.9
20260506015504 34 252 2.0 10.0 0.00 0.49 0.00 89 1013.0
20260506015004 34 260 5.0 10.0 0.00 0.49 0.00 89 1013.1
20260506014503 34 275 5.0 10.0 0.00 0.49 0.00 89 1013.0
20260506013503 34 210 2.0 8.0 0.00 0.49 0.00 89 1012.9
20260506013003 34 152 3.0 9.0 0.00 0.49 0.00 90 1013.0
20260506012503 34 143 2.0 9.0 0.00 0.49 0.00 90 1012.9
20260506012004 34 258 1.0 3.0 0.00 0.49 0.00 90 1012.9
20260506011504 34 262 1.0 6.0 0.00 0.49 0.00 90 1012.9
20260506011004 34 298 1.0 5.0 0.00 0.49 0.00 90 1012.9
20260506005504 33 133 3.0 7.0 0.00 0.49 0.00 90 1012.9
20260506005003 33 153 1.0 5.0 0.00 0.49 0.00 90 1013.0
20260506004003 33 286 1.0 2.0 0.00 0.49 0.00 90 1013.0
20260506003503 33 50 1.0 2.0 0.00 0.49 0.00 89 1012.8
20260506003004 33 280 1.0 2.0 0.00 0.49 0.00 89 1012.8
20260506002503 33 121 1.0 2.0 0.00 0.49 0.00 89 1012.8
20260506002003 33 292 1.0 3.0 0.00 0.49 0.00 89 1012.8
20260506001503 33 318 0.0 3.0 0.00 0.49 0.00 89 1013.0
20260506001004 33 343 1.0 3.0 0.00 0.49 0.00 89 1013.1
20260506000504 33 330 0.0 2.0 0.00 0.49 0.00 89 1012.9
20260506000004 33 320 1.0 2.0 0.00 0.49 0.00 88 1013.0
20260505235504 33 291 0.0 1.0 0.00 0.49 0.00 88 1012.9
20260505235004 33 303 1.0 3.0 0.00 0.49 0.00 88 1013.2
20260505234504 34 356 0.0 0.0 0.00 0.49 0.00 88 1013.1
20260505234004 34 356 0.0 1.0 0.00 0.49 0.00 88 1013.1
20260505233504 33 73 0.0 1.0 0.00 0.49 0.00 87 1013.1
20260505233004 33 70 0.0 2.0 0.00 0.49 0.00 87 1013.1
20260505232503 33 54 1.0 3.0 0.00 0.49 0.00 87 1013.1
20260505232003 34 305 0.0 0.0 0.00 0.49 0.00 86 1013.2
20260505231504 34 299 1.0 3.0 0.00 0.49 0.00 84 1013.3
20260505231004 34 295 1.0 3.0 0.00 0.49 0.00 82 1013.3
20260505230004 36 271 5.0 12.0 0.00 0.49 0.00 80 1013.4
20260505225504 36 272 5.0 12.0 0.00 0.49 0.00 78 1013.3
20260505225004 36 246 3.0 7.0 0.00 0.49 0.00 77 1013.2
20260505224503 36 193 1.0 3.0 0.00 0.49 0.00 77 1013.0
20260505224003 36 294 0.0 3.0 0.00 0.49 0.00 78 1012.9
20260505223503 35 247 2.0 3.0 0.00 0.49 0.00 79 1012.8
20260505223003 35 296 3.0 7.0 0.00 0.49 0.00 80 1012.8
20260505222504 35 293 2.0 3.0 0.00 0.49 0.00 80 1012.8
20260505222004 35 224 1.0 2.0 0.00 0.49 0.00 80 1012.9
20260505221503 35 202 3.0 9.0 0.00 0.50 0.00 81 1012.8
20260505221003 35 136 1.0 3.0 0.00 0.50 0.00 81 1012.9
20260505220504 35 141 1.0 3.0 0.00 0.50 0.00 82 1012.9
20260505220003 35 150 0.0 1.0 0.00 0.50 0.00 81 1013.0
20260505215503 35 165 0.0 5.0 0.00 0.50 0.50 81 1013.0
20260505215003 35 261 2.0 7.0 0.00 0.50 0.50 81 1013.0
20260505214504 35 221 1.0 7.0 0.00 0.50 0.50 81 1013.1
20260505214004 35 270 2.0 9.0 0.00 0.50 0.50 81 1013.1
20260505213503 35 242 2.0 9.0 0.00 0.50 0.50 82 1013.1
20260505213004 35 233 1.0 6.0 0.00 0.50 0.50 81 1013.1
20260505212003 35 203 2.0 5.0 0.00 0.50 0.50 80 1013.1
20260505211503 35 143 3.0 8.0 0.00 0.50 0.50 80 1013.1
20260505211004 35 202 2.0 8.0 0.00 0.50 0.50 80 1013.1
20260505210003 36 152 2.0 7.0 0.00 0.50 0.50 81 1013.1
20260505205503 36 163 1.0 3.0 0.00 0.50 0.50 81 1013.1
20260505205004 36 159 1.0 7.0 0.00 0.50 0.50 81 1013.2
20260505204504 35 209 1.0 8.0 0.00 0.50 0.50 81 1013.1
20260505203503 35 159 0.0 2.0 0.00 0.50 0.50 82 1013.0
20260505203004 35 212 0.0 2.0 0.00 0.50 0.50 81 1013.0
20260505202504 36 128 0.0 3.0 0.00 0.50 0.50 81 1013.0
20260505201503 36 159 1.0 3.0 0.00 0.50 0.50 82 1013.0
20260505201004 36 156 1.0 6.0 0.00 0.50 0.50 83 1013.0
20260505200503 36 147 1.0 5.0 0.00 0.50 0.50 83 1012.9
20260505195504 36 170 0.0 1.0 0.00 0.50 0.50 85 1012.8
20260505195004 35 191 0.0 1.0 0.00 0.50 0.50 85 1012.9
20260505194504 35 176 1.0 3.0 0.00 0.50 0.50 86 1012.9
20260505194004 35 91 0.0 1.0 0.00 0.50 0.50 86 1012.8
20260505193504 35 95 0.0 1.0 0.00 0.50 0.50 86 1012.7
20260505193004 35 100 0.0 1.0 0.00 0.50 0.50 86 1012.7
20260505192004 34 114 0.0 1.0 0.00 0.50 0.50 85 1012.8